Temperature
14 15 15 15 13 11 13 14 15 16 17 18 18 17 16 16 17 17 16 16 16 16 16 16 16 16 16 16 16 16 16 16 16 16 16 16 16 16 16 16 16 16 16 16 16 16 16 16 16
14 14 15 14 11 12 13 13 15 16 17 18 18 17 16 15 16 15 15 15 16 16 16 16 16 16 16 16 16 16 16 16 16 16 16 16 16 16 16 15 15 15 15 15 15 15 15 15 15
14 14 14 11 11 12 14 15 15 16 17 17 16 16 16 15 15 15 15 15 15 15 15 16 16 16 16 16 16 16 16 16 16 16 16 15 15 15 15 15 15 15 15 15 15 15 15 15 15
14 14 13 11 12 13 14 14 15 15 17 17 16 15 15 15 15 15 15 15 15 15 15 15 15 15 15 16 16 16 16 16 16 16 15 15 15 15 15 15 15 15 15 15 15 15 15 15 15
13 13 11 11 12 13 13 14 15 14 15 16 15 13 14 15 15 15 15 15 15 15 15 15 15 15 15 15 15 15 15 15 15 15 15 15 15 15 15 15 15 15 15 15 15 15 15 15 14
13 11 10 10 12 13 13 14 15 14 14 15 15 13 14 14 14 14 14 14 14 14 14 14 14 15 15 15 15 15 15 15 15 15 15 15 15 15 15 14 14 14 14 15 14 14 14 14 14
12 9 10 11 12 12 13 14 14 13 14 14 15 13 13 14 14 14 14 14 14 14 14 14 14 14 14 15 15 15 15 15 15 15 15 14 14 14 14 14 14 14 14 14 14 14 14 14 14
12 9 11 11 12 12 13 14 14 14 14 15 15 13 13 13 13 13 13 13 13 14 14 14 14 14 14 14 14 14 14 14 14 14 14 14 14 14 14 14 14 14 14 14 14 14 14 14 14
12 9 10 11 12 12 13 13 14 14 14 14 14 14 14 13 13 13 13 13 13 13 13 13 13 14 14 14 14 14 14 14 14 14 14 14 14 14 14 14 14 14 14 14 14 14 14 14 13
11 8 10 11 12 11 12 12 13 13 13 13 13 14 14 13 13 13 13 13 13 13 13 13 13 13 13 13 14 14 14 14 14 14 14 14 14 14 14 14 14 14 14 13 13 14 13 13 13
10 9 11 11 12 12 12 12 13 12 12 12 13 13 13 13 13 12 12 12 13 12 12 12 13 13 13 13 13 13 13 13 13 13 13 13 13 13 13 13 13 13 13 13 13 13 13 13 13
10 11 11 11 12 12 12 12 12 12 12 13 13 13 13 12 13 12 12 12 12 12 12 12 12 12 12 13 13 13 13 13 13 13 13 13 13 13 13 13 13 13 13 13 13 13 13 13 13
10 10 11 11 12 12 12 11 11 12 13 13 13 13 13 12 12 12 12 12 12 12 12 12 12 12 12 12 12 12 12 12 13 13 12 12 13 13 13 13 13 13 13 13 13 13 12 12 12
10 10 11 11 11 11 11 11 11 12 13 13 12 12 12 12 12 12 12 12 11 11 11 12 12 12 12 12 12 12 12 12 12 12 12 12 12 12 12 12 12 12 12 12 12 12 12 12 12
11 10 10 10 11 11 11 10 10 12 12 12 12 12 12 12 12 12 12 12 11 11 11 11 11 11 11 11 11 11 12 12 12 12 12 12 12 12 12 12 12 12 12 12 12 12 12 12 12
10 9 9 10 10 11 10 9 10 12 12 11 12 12 12 12 12 11 11 11 11 11 11 11 11 11 11 11 11 11 11 11 11 11 11 11 11 11 12 12 12 12 12 12 12 12 12 11 11
9 8 9 10 10 10 10 9 10 11 11 11 11 11 11 11 11 11 11 11 11 11 11 11 11 11 11 11 11 11 11 11 11 11 11 11 11 11 11 11 11 11 11 11 11 11 11 11 11
9 8 9 9 10 10 9 9 9 11 11 10 10 11 10 10 11 11 10 10 10 10 10 10 10 10 10 10 10 10 10 10 10 10 10 10 11 11 11 11 11 11 11 11 11 11 11 10 10
9 9 9 9 10 9 9 9 9 10 10 10 10 10 10 10 10 10 10 10 10 10 10 10 10 10 10 10 10 10 10 10 10 10 10 10 10 10 10 11 10 11 11 10 10 10 10 10 10
9 9 8 8 9 9 8 8 9 9 9 10 10 10 10 10 10 10 10 10 10 10 10 10 9 9 10 10 9 9 9 9 9 10 10 10 10 10 10 10 10 10 10 10 10 10 9 9 9
9 8 8 8 8 8 8 8 8 9 9 10 10 10 10 10 10 10 10 10 10 10 9 9 9 9 9 9 9 9 9 9 9 9 9 9 9 9 9 9 9 9 9 9 9 9 9 9 9
8 8 9 8 7 6 8 7 8 8 8 9 9 9 10 10 9 9 9 9 9 9 9 9 9 9 9 9 9 9 9 9 9 9 9 9 9 9 9 9 9 9 9 9 9 8 8 8 8
8 8 8 8 7 6 7 6 7 8 8 8 8 9 9 9 9 9 9 9 9 9 9 9 9 8 8 8 8 8 8 8 8 8 8 8 8 8 8 8 8 8 8 8 8 8 8 8 8
8 7 7 5 5 6 7 6 7 7 8 8 8 9 9 9 9 9 9 9 9 8 8 8 8 8 8 8 8 8 8 8 8 8 8 8 8 8 8 8 8 8 8 8 8 7 7 7 7
7 6 5 6 5 6 7 7 7 8 8 8 8 8 9 9 9 8 8 8 8 8 8 8 8 8 8 8 8 8 7 7 7 7 7 7 7 7 7 7 7 7 7 7 7 7 7 7 7
7 6 6 7 6 6 6 6 7 8 8 9 9 9 9 8 8 8 8 8 8 8 8 8 8 8 7 7 7 7 7 7 7 7 7 7 7 7 7 7 7 7 7 6 6 6 6 6 6
7 6 6 5 5 5 6 6 7 8 7 7 8 8 8 8 8 8 8 8 8 8 8 8 7 7 7 7 7 7 7 7 6 6 6 6 6 6 6 6 6 6 6 6 6 6 6 6 6
7 6 4 5 6 6 6 6 6 7 7 7 7 7 8 8 8 8 8 8 8 8 7 7 7 7 7 7 7 7 6 6 6 6 6 6 6 6 6 6 6 6 6 6 5 5 5 5 5
6 6 5 4 4 5 5 6 7 7 7 7 7 7 8 8 8 8 8 7 7 7 7 7 7 7 7 7 6 6 6 6 6 6 6 5 5 5 5 5 5 5 5 5 5 5 5 5 5
6 6 5 5 5 4 4 6 7 6 6 7 7 8 8 8 8 8 7 7 7 7 7 7 7 6 6 6 6 6 6 5 5 5 5 5 5 5 5 5 5 5 5 5 5 5 4 4 4
Wind_Speed
13 11 3 4 5 3 2 4 2 2 2 2 1 3 4 3 3 4 1 5 8 9 11 13 13 13 13 13 12 12 12 11 10 10 10 10 10 9 9 9 9 9 8 8 7 7 7 7 7
9 4 4 5 4 2 4 4 3 3 2 1 3 3 4 2 2 4 3 4 8 10 11 12 13 13 13 12 12 12 11 11 10 10 10 10 9 9 9 9 8 8 8 7 7 7 7 6 6
7 2 4 4 4 6 4 3 4 3 3 2 3 3 3 1 1 2 3 6 8 8 9 12 13 12 12 12 11 11 10 10 10 10 9 9 9 8 8 7 7 7 7 7 6 6 6 5 4
3 4 4 3 3 4 4 3 3 2 4 4 2 3 2 2 1 3 6 8 9 6 8 11 13 12 12 11 11 10 10 9 9 9 9 8 8 8 7 7 6 6 6 6 5 5 4 4 3
3 4 3 0 3 3 3 3 2 1 2 2 2 2 2 4 2 7 8 9 9 6 7 9 11 11 11 11 10 10 9 9 9 9 8 8 8 8 7 6 6 6 5 5 4 4 4 3 2
4 4 3 2 3 3 3 3 1 1 1 2 2 1 2 1 4 5 7 8 8 7 7 8 10 10 10 10 10 9 9 8 8 8 8 8 7 7 7 6 6 5 5 5 4 3 3 2 2
3 3 3 3 2 3 3 2 0 1 1 2 1 1 1 1 1 3 5 7 7 7 7 6 7 9 10 10 9 9 8 8 8 8 8 7 7 7 6 6 6 5 5 4 3 3 2 2 2
4 3 1 1 3 4 3 3 2 2 3 2 1 3 3 4 1 4 5 6 6 5 5 5 6 6 7 8 9 9 9 8 7 7 6 6 6 6 6 5 5 4 4 3 3 2 2 2 3
3 3 1 3 3 4 3 3 3 2 1 1 1 3 4 4 3 5 5 4 4 4 4 4 4 5 5 7 8 9 8 7 7 6 6 6 5 5 5 4 4 3 3 3 3 2 2 3 3
3 3 4 3 2 3 4 4 3 2 2 2 2 3 2 4 4 4 5 6 5 4 4 3 4 5 5 5 6 6 6 6 6 6 6 6 5 4 4 4 4 3 3 2 2 3 4 4 4
3 5 4 3 3 4 4 4 3 1 4 5 4 3 3 3 3 4 4 6 6 5 5 4 4 5 5 4 4 4 5 5 6 7 6 6 6 5 5 4 4 3 3 3 3 4 4 4 3
1 3 3 3 3 3 4 2 2 4 7 6 6 6 5 5 5 6 6 6 5 5 5 4 4 4 4 5 3 5 4 4 4 5 6 6 4 3 3 3 2 2 2 2 3 3 3 3 3
2 3 2 4 5 4 3 3 4 6 7 4 2 4 6 7 6 5 5 6 5 5 5 5 4 4 4 4 3 4 4 4 5 5 5 5 4 2 2 2 2 2 2 2 2 2 2 3 3
2 2 4 5 5 3 3 5 3 7 4 1 3 4 6 7 6 4 4 4 5 5 5 5 5 4 5 4 3 3 4 5 5 4 4 5 5 3 2 2 2 2 2 2 2 1 1 1 2
1 3 5 4 3 3 2 6 5 6 1 1 2 3 4 4 4 4 5 6 5 5 5 4 4 4 5 5 3 4 5 5 4 4 5 5 4 3 3 2 1 2 2 2 2 3 2 1 2
2 2 3 5 2 2 1 7 8 5 1 3 3 2 3 3 3 3 4 4 5 5 5 4 4 4 5 5 4 3 5 5 4 4 4 4 4 4 3 2 1 2 2 2 1 1 2 1 1
3 2 4 5 2 1 1 7 8 4 2 4 4 3 3 2 1 2 4 4 5 5 5 5 4 4 4 5 4 3 4 4 4 4 4 4 4 4 4 2 1 2 2 2 1 1 1 1 1
3 3 4 5 4 2 4 8 10 5 4 5 4 3 3 2 3 3 4 4 5 4 5 5 4 4 5 4 4 3 3 3 3 3 3 3 4 4 3 2 2 3 2 2 1 2 2 1 1
3 3 6 6 5 3 6 9 11 7 4 5 4 4 4 3 3 3 4 5 5 4 4 4 5 4 4 3 3 3 2 2 2 2 3 3 3 3 3 2 2 2 1 1 1 1 1 2 2
1 3 5 6 4 3 5 9 9 6 4 5 5 5 5 3 2 4 4 4 4 4 4 4 4 4 4 3 3 2 2 2 1 1 2 3 3 2 2 2 1 1 1 2 1 1 1 1 2
2 4 4 5 6 4 4 8 6 5 3 3 3 4 4 5 6 5 5 5 4 4 5 4 4 4 4 4 3 3 3 2 2 1 1 2 2 2 2 2 1 1 1 1 0 1 2 1 0
4 4 3 3 3 4 2 5 7 5 4 3 3 2 4 4 5 5 6 5 5 4 4 4 4 4 3 4 4 4 3 2 2 1 1 1 2 2 2 2 2 2 1 1 0 0 1 2 1
4 3 3 3 1 3 2 2 8 3 4 5 5 4 4 4 5 5 6 6 5 4 4 4 4 3 3 4 4 4 3 2 1 1 1 1 1 1 1 1 2 2 1 1 1 1 0 1 2
1 4 4 3 3 2 3 4 6 4 5 4 4 4 4 3 3 3 4 4 3 3 3 3 4 3 3 3 3 4 4 3 2 1 1 1 0 0 0 1 1 1 1 0 0 0 0 1 1
3 4 4 5 3 5 3 3 7 7 5 4 4 4 4 4 4 4 3 4 4 5 5 4 4 3 2 3 3 3 3 3 3 3 3 2 1 1 2 1 1 1 1 1 1 1 1 1 2
1 4 4 3 4 5 4 4 6 5 3 1 2 3 3 3 3 4 4 4 5 5 5 5 4 3 3 3 3 3 3 2 2 3 3 2 2 2 2 2 2 2 1 1 1 1 1 1 2
3 3 4 3 1 3 6 6 7 2 3 2 1 2 2 2 3 3 3 4 4 5 5 5 5 3 3 3 3 3 3 3 3 2 2 2 2 2 2 2 2 2 2 2 1 1 2 2 2
3 4 4 3 2 4 6 5 4 4 3 1 1 2 2 1 2 2 2 3 3 4 4 4 4 4 4 3 3 2 2 3 3 2 3 2 2 2 2 2 2 2 2 2 2 2 3 3 3
3 3 3 3 3 3 4 6 4 5 4 4 4 4 4 3 2 2 2 2 2 2 3 4 4 4 4 4 3 3 3 3 3 3 3 3 2 2 3 3 2 3 3 3 3 4 3 4 4
5 6 6 4 4 4 3 7 4 3 3 3 4 3 3 3 2 2 2 2 2 2 3 4 4 4 5 4 4 4 3 3 3 3 3 3 3 3 3 3 3 3 3 3 4 4 4 5 5
Wind_Direction
330 333 34 55 64 62 233 252 245 313 327 315 346 100 121 125 150 165 136 130 125 136 144 145 144 142 139 135 132 128 126 124 120 119 119 117 115 112 111 110 109 106 101 97 92 89 86 82 79
331 342 49 64 104 149 255 251 250 248 251 326 19 61 75 60 67 105 99 125 126 133 138 142 140 139 137 135 133 131 130 129 125 122 122 122 120 117 113 112 111 109 105 99 94 89 85 81 77
332 21 80 86 135 182 210 224 226 272 319 26 23 37 80 118 97 132 147 129 117 120 131 141 140 139 138 135 133 134 133 132 129 127 124 125 125 122 118 114 112 113 109 103 96 91 88 81 77
32 40 60 88 197 223 209 246 256 322 351 22 65 42 19 326 200 150 133 117 115 111 121 137 141 141 141 138 136 134 135 136 135 131 128 127 127 125 121 117 116 116 114 110 102 95 92 85 76
58 78 83 105 235 251 254 272 269 360 335 349 64 89 323 324 98 123 125 117 117 112 116 131 140 139 139 140 138 135 135 140 139 137 135 132 127 127 120 118 118 117 117 114 107 100 93 84 67
51 71 110 207 245 263 280 286 294 16 309 335 59 88 251 325 90 116 122 121 122 121 116 123 135 140 138 139 138 137 136 139 143 141 140 135 128 125 125 118 116 114 115 114 108 104 96 80 49
100 102 159 195 235 259 267 305 242 244 284 272 158 128 234 273 96 114 116 115 118 120 115 114 128 135 141 141 140 137 137 136 136 139 139 135 131 125 123 121 121 117 111 109 102 92 81 52 19
119 103 128 227 212 238 284 316 277 235 241 260 122 156 218 240 185 106 108 112 115 114 116 118 121 122 134 141 141 138 135 131 127 126 133 132 130 127 121 123 126 120 113 107 101 80 56 22 7
86 75 213 224 213 237 287 301 298 273 191 345 332 211 224 183 142 114 114 114 122 121 119 125 128 124 134 146 144 138 138 134 124 117 120 120 119 120 117 117 126 127 115 98 74 49 36 24 13
97 160 223 225 228 246 277 266 271 315 326 311 330 326 148 149 151 141 156 159 154 153 153 143 137 145 146 151 144 139 140 134 118 112 109 106 102 109 116 112 110 103 92 80 50 33 24 24 18
156 196 229 253 266 256 270 284 272 215 268 254 242 237 187 177 171 176 187 175 172 173 166 159 150 149 143 136 147 136 131 125 117 111 104 101 91 85 87 84 75 72 68 48 30 27 24 22 26
199 248 241 271 292 276 260 258 285 237 246 255 224 194 196 193 199 194 198 186 172 169 168 161 153 141 142 133 140 137 130 125 118 118 114 108 94 78 73 68 59 54 49 40 27 18 18 27 32
233 265 284 282 297 291 285 270 269 266 266 261 201 176 191 197 207 203 199 182 169 170 168 163 157 144 140 128 134 134 134 134 129 125 123 121 115 105 82 75 59 45 45 41 25 17 24 27 25
246 287 304 296 294 299 281 285 278 272 271 246 184 198 200 201 197 181 182 177 172 172 168 164 160 151 141 129 136 148 135 131 126 125 127 125 122 123 114 87 65 34 21 21 34 36 46 27 37
296 325 323 301 271 271 305 305 266 268 277 248 221 214 199 197 184 178 180 179 171 173 162 157 157 146 136 128 139 144 134 128 120 119 117 117 118 119 118 99 55 7 9 21 37 35 44 49 43
3 11 323 302 281 279 113 278 283 278 242 262 261 228 203 205 194 186 181 172 158 159 154 154 155 143 132 124 120 126 124 121 116 109 101 100 102 107 104 96 49 7 25 35 50 44 50 35 24
20 321 286 304 301 309 206 270 289 295 247 254 256 235 221 213 210 193 175 164 153 157 153 146 137 133 126 117 110 111 117 114 111 103 95 92 89 96 97 94 57 44 48 33 41 55 55 29 1
260 273 278 279 294 311 277 272 289 293 258 247 235 221 217 209 220 191 167 153 148 148 150 142 132 124 115 101 96 84 85 84 85 85 84 85 80 80 87 75 48 54 61 36 50 55 40 36 350
232 245 274 273 279 295 275 282 288 287 263 248 235 214 217 228 239 170 164 150 140 137 141 139 136 132 121 114 115 117 108 96 88 87 86 80 73 77 83 73 46 55 70 52 64 77 56 29 19
243 264 282 294 303 289 286 289 285 278 249 232 222 219 214 217 202 172 167 152 151 155 150 140 142 139 134 132 128 133 134 124 116 101 80 83 76 67 83 81 57 54 71 43 58 94 103 35 41
282 236 254 277 314 325 318 310 294 293 272 255 230 209 199 196 190 180 170 172 165 167 169 161 151 141 138 131 113 102 81 72 72 75 62 64 77 69 84 95 94 78 96 83 45 125 141 173 350
264 261 260 282 333 299 357 300 289 283 288 268 243 222 209 206 186 182 176 176 181 185 169 154 149 142 144 138 139 142 149 161 195 177 154 91 82 85 82 85 103 100 87 89 13 85 171 164 200
236 291 294 280 244 301 290 219 287 301 274 266 244 228 215 198 185 187 186 180 183 174 162 154 141 137 136 140 149 148 149 160 145 122 128 107 76 91 99 104 106 95 80 81 39 31 116 169 190
278 5 6 28 72 296 247 191 281 264 251 264 245 220 209 192 182 183 180 163 159 148 146 141 137 139 145 138 137 149 158 157 149 164 188 197 187 91 123 124 128 137 140 190 211 213 161 185 190
58 64 16 356 355 259 275 215 253 264 261 238 221 205 202 186 172 169 165 167 165 163 163 158 154 157 160 148 149 159 168 170 185 194 197 197 203 218 227 204 193 192 200 204 190 188 240 208 199
188 142 159 222 250 287 316 248 260 287 300 293 167 166 168 174 176 180 182 179 178 178 173 166 169 169 167 167 174 170 171 180 196 202 198 196 209 225 214 203 208 212 212 216 191 209 241 220 216
157 190 175 149 258 286 284 288 303 335 9 26 78 121 158 190 188 192 189 182 185 183 182 177 176 180 184 183 177 181 178 182 196 199 194 199 211 220 200 193 212 219 214 210 204 223 236 216 224
163 151 106 141 196 267 290 280 268 282 276 264 207 198 223 232 213 202 201 198 192 191 189 177 183 196 204 194 193 196 194 199 197 187 197 207 220 226 218 219 225 235 232 219 215 227 233 220 234
166 165 156 161 179 188 267 273 238 237 237 223 228 221 209 209 214 209 206 204 185 178 185 186 192 200 203 200 200 198 203 206 201 202 213 215 223 222 223 227 228 233 238 238 228 233 230 228 242
194 189 162 176 227 200 217 268 279 242 232 212 226 233 219 208 214 208 197 179 183 201 205 201 200 202 205 200 195 201 206 205 208 217 223 219 221 227 228 228 229 237 240 240 237 240 239 229 237
Height
1517 1517 1518 1520 1524 1533 1533 1527 1520 1517 1515 1514 1513 1512 1513 1515 1518 1523 1519 1518 1519 1521 1523 1525 1526 1528 1529 1530 1531 1531 1532 1533 1533 1534 1534 1535 1535 1536 1536 1537 1537 1538 1538 1539 1539 1539 1539 1539 1539
1517 1517 1519 1520 1529 1538 1534 1524 1519 1516 1515 1514 1513 1512 1512 1514 1515 1516 1516 1517 1519 1521 1523 1524 1526 1527 1528 1529 1530 1531 1531 1532 1533 1533 1534 1535 1535 1535 1536 1536 1537 1537 1538 1538 1538 1538 1538 1539 1539
1517 1517 1519 1522 1530 1533 1527 1520 1518 1515 1514 1513 1513 1513 1514 1515 1515 1516 1516 1517 1519 1521 1523 1524 1526 1527 1528 1528 1529 1530 1531 1531 1532 1533 1533 1534 1534 1535 1535 1536 1536 1537 1537 1537 1538 1538 1538 1538 1538
1517 1518 1520 1525 1527 1524 1520 1517 1516 1514 1514 1513 1514 1514 1515 1516 1516 1516 1516 1517 1519 1521 1522 1524 1525 1526 1527 1528 1528 1529 1530 1531 1531 1532 1533 1533 1534 1534 1535 1535 1536 1536 1536 1537 1537 1537 1537 1537 1537
1517 1518 1523 1528 1525 1521 1518 1516 1515 1514 1514 1514 1514 1514 1515 1516 1516 1516 1516 1517 1518 1520 1522 1523 1524 1525 1526 1527 1528 1528 1529 1530 1530 1531 1532 1533 1533 1534 1534 1535 1535 1535 1536 1536 1536 1536 1536 1536 1537
1517 1519 1528 1530 1524 1520 1517 1516 1515 1514 1514 1514 1514 1514 1514 1515 1515 1515 1516 1516 1517 1519 1521 1522 1523 1524 1525 1526 1527 1527 1528 1529 1530 1530 1531 1532 1532 1533 1533 1534 1534 1535 1535 1535 1535 1535 1535 1536 1536
1518 1522 1526 1525 1523 1520 1517 1516 1515 1514 1513 1514 1513 1513 1513 1514 1514 1515 1515 1516 1517 1519 1520 1521 1522 1523 1524 1525 1525 1526 1527 1528 1529 1529 1530 1531 1532 1532 1533 1533 1534 1534 1534 1534 1534 1535 1535 1535 1535
1517 1522 1523 1524 1522 1520 1516 1515 1514 1513 1512 1512 1512 1512 1512 1512 1512 1513 1514 1515 1516 1518 1518 1519 1520 1521 1522 1523 1524 1525 1526 1527 1528 1528 1529 1530 1531 1531 1532 1532 1533 1533 1533 1533 1533 1534 1534 1534 1534
1518 1525 1526 1522 1519 1518 1515 1514 1512 1512 1511 1510 1510 1510 1510 1510 1510 1511 1512 1513 1514 1516 1517 1517 1518 1519 1520 1521 1522 1523 1525 1526 1526 1527 1528 1529 1530 1530 1531 1531 1532 1532 1532 1532 1532 1532 1532 1533 1533
1518 1526 1522 1517 1515 1515 1513 1512 1511 1510 1509 1508 1508 1508 1508 1508 1508 1508 1508 1510 1512 1513 1515 1516 1517 1518 1519 1519 1520 1521 1523 1524 1525 1526 1527 1527 1528 1529 1530 1530 1530 1531 1531 1531 1531 1531 1531 1531 1531
1518 1520 1517 1515 1513 1513 1511 1510 1510 1509 1508 1507 1506 1505 1506 1506 1505 1506 1507 1507 1509 1512 1513 1514 1515 1516 1517 1517 1519 1519 1521 1522 1523 1524 1525 1526 1527 1528 1528 1529 1529 1529 1530 1530 1530 1530 1530 1530 1530
1517 1515 1514 1513 1512 1511 1510 1509 1509 1508 1506 1505 1504 1503 1504 1504 1504 1504 1505 1505 1508 1510 1511 1512 1513 1514 1515 1516 1517 1517 1519 1520 1521 1522 1524 1524 1525 1526 1526 1527 1528 1528 1528 1528 1528 1528 1528 1528 1528
1516 1514 1513 1512 1511 1510 1508 1508 1507 1505 1504 1503 1502 1502 1502 1502 1502 1502 1503 1504 1506 1507 1509 1510 1511 1512 1513 1514 1515 1516 1517 1518 1519 1521 1522 1523 1524 1524 1525 1525 1526 1526 1526 1526 1526 1526 1526 1526 1526
1515 1514 1513 1511 1509 1508 1508 1506 1506 1502 1502 1501 1500 1499 1499 1499 1500 1501 1501 1502 1503 1505 1506 1508 1509 1511 1512 1512 1514 1514 1515 1517 1518 1519 1520 1521 1522 1523 1523 1523 1524 1524 1524 1524 1524 1524 1524 1524 1524
1515 1515 1513 1510 1509 1508 1508 1506 1503 1500 1500 1499 1498 1498 1497 1497 1498 1498 1499 1500 1501 1503 1504 1506 1507 1509 1510 1510 1512 1512 1514 1515 1516 1517 1518 1519 1520 1521 1521 1522 1522 1522 1522 1522 1522 1522 1522 1522 1522
1516 1517 1518 1511 1509 1508 1511 1509 1500 1499 1498 1497 1496 1495 1495 1495 1496 1496 1497 1498 1499 1500 1502 1504 1505 1506 1507 1507 1509 1510 1512 1513 1515 1516 1516 1517 1518 1518 1519 1520 1520 1520 1520 1520 1519 1519 1520 1520 1520
1520 1522 1519 1513 1509 1508 1509 1507 1499 1498 1496 1495 1494 1493 1493 1493 1494 1494 1495 1496 1497 1499 1499 1501 1503 1504 1505 1506 1508 1509 1510 1512 1513 1514 1515 1515 1516 1516 1517 1517 1517 1518 1518 1517 1517 1517 1517 1517 1517
1522 1521 1518 1515 1509 1508 1508 1504 1498 1496 1495 1493 1492 1492 1492 1492 1493 1493 1494 1495 1496 1497 1498 1499 1501 1502 1503 1504 1505 1507 1508 1509 1511 1512 1513 1513 1514 1514 1514 1515 1515 1515 1515 1515 1515 1515 1515 1515 1515
1517 1518 1517 1513 1508 1509 1506 1502 1496 1494 1493 1491 1491 1491 1491 1491 1492 1493 1493 1494 1495 1496 1497 1498 1499 1500 1501 1502 1503 1505 1506 1507 1508 1509 1510 1511 1511 1512 1512 1512 1512 1513 1513 1513 1513 1513 1512 1512 1513
1515 1517 1517 1512 1508 1508 1505 1502 1495 1491 1490 1488 1488 1488 1488 1489 1491 1492 1492 1492 1494 1495 1496 1497 1498 1498 1499 1500 1502 1503 1504 1505 1506 1507 1507 1508 1509 1510 1510 1510 1510 1510 1510 1510 1510 1510 1510 1510 1510
1516 1516 1515 1514 1510 1507 1507 1502 1495 1490 1488 1487 1487 1487 1487 1488 1488 1489 1490 1491 1493 1494 1495 1495 1496 1497 1498 1499 1500 1501 1502 1503 1504 1504 1505 1506 1506 1507 1507 1508 1508 1508 1508 1508 1508 1508 1507 1507 1508
1517 1512 1512 1511 1515 1516 1512 1515 1497 1491 1489 1486 1486 1485 1486 1487 1487 1488 1488 1489 1490 1492 1494 1495 1495 1496 1497 1498 1499 1499 1500 1501 1501 1502 1503 1503 1504 1505 1505 1505 1506 1505 1505 1505 1505 1505 1505 1505 1505
1513 1511 1511 1511 1513 1517 1513 1515 1501 1493 1490 1486 1484 1484 1484 1485 1485 1486 1486 1488 1490 1491 1492 1494 1494 1495 1496 1496 1497 1498 1499 1499 1500 1500 1501 1501 1502 1502 1502 1503 1503 1503 1503 1502 1503 1503 1503 1502 1502
1511 1512 1512 1516 1518 1519 1511 1515 1504 1495 1488 1484 1483 1483 1483 1483 1484 1485 1486 1487 1489 1490 1491 1492 1493 1494 1495 1495 1496 1496 1497 1497 1498 1498 1499 1499 1499 1500 1500 1500 1500 1500 1500 1500 1500 1500 1500 1500 1500
1513 1520 1527 1526 1528 1519 1509 1510 1502 1487 1484 1482 1482 1482 1482 1482 1483 1484 1485 1486 1487 1488 1490 1491 1492 1492 1493 1493 1494 1495 1496 1496 1496 1496 1497 1496 1496 1497 1497 1498 1498 1498 1497 1497 1497 1497 1497 1497 1497
1514 1518 1526 1525 1525 1519 1510 1508 1495 1485 1482 1481 1480 1481 1481 1482 1482 1483 1483 1484 1485 1487 1488 1489 1490 1490 1491 1492 1492 1493 1494 1494 1494 1494 1494 1494 1494 1494 1495 1495 1495 1495 1494 1494 1494 1493 1493 1493 1493
1513 1518 1517 1525 1526 1524 1514 1504 1491 1484 1483 1482 1481 1481 1481 1481 1482 1482 1482 1483 1484 1485 1486 1487 1488 1489 1490 1490 1491 1491 1491 1492 1492 1492 1492 1492 1492 1492 1492 1492 1492 1492 1491 1491 1490 1490 1490 1490 1489
1511 1513 1521 1523 1522 1520 1512 1506 1498 1488 1484 1483 1482 1481 1481 1481 1482 1482 1482 1482 1483 1484 1485 1486 1487 1487 1488 1488 1489 1489 1489 1489 1489 1489 1489 1489 1489 1489 1489 1489 1489 1488 1488 1488 1487 1487 1487 1486 1486
1512 1513 1515 1521 1522 1522 1518 1505 1488 1485 1483 1482 1481 1480 1480 1481 1481 1481 1481 1482 1482 1483 1484 1484 1485 1486 1486 1486 1486 1486 1486 1487 1486 1486 1486 1486 1486 1486 1486 1485 1485 1485 1485 1484 1483 1483 1482 1482 1481
1507 1508 1512 1517 1518 1520 1519 1505 1482 1482 1480 1480 1480 1480 1480 1480 1480 1480 1480 1480 1481 1481 1481 1482 1482 1483 1483 1484 1484 1484 1484 1483 1483 1483 1483 1482 1482 1482 1482 1482 1481 1481 1481 1480 1480 1479 1478 1478 1477